Miscellaneous Local Product
Issued by NWS Hastings, NE

Home | Current Version | Previous Version | Graphics & Text | Print | Product List | Glossary On
Versions: 1 2 3 4 5 6 7 8 9 10 11 12 13 14 15 16 17 18 19 20 21 22 23 24 25 26 27 28 29 30 31 32 33 34 35 36 37 38 39 40 41 42 43 44 45 46 47 48 49 50
062
AXUS43 KGID 240602
MISGRI

GID CWA HOURLY WEATHER ROUNDUP
NATIONAL WEATHER SERVICE HASTINGS NE
100 AM CDT MON JUL 24 2017

NOTE: "FAIR" INDICATES FEW OR NO CLOUDS BELOW 12,000 FEET WITH NO
SIGNIFICANT WEATHER AND/OR OBSTRUCTIONS TO VISIBILITY.

...SOUTH CENTRAL NEBRASKA...

CITY           SKY/WX    TMP DP  RH WIND       PRES   REMARKS
GRAND ISLAND   CLEAR     69  65  86 SE5       30.04S
HASTINGS       CLEAR     73  60  63 E8        30.04S
KEARNEY        CLEAR     69  65  86 E8        30.04S
ORD            CLEAR     66  61  84 CALM      30.03R
YORK           CLEAR     66  63  88 E5        30.03S
AURORA         CLEAR     67  64  91 E5        30.03S
LEXINGTON      CLEAR     71  66  84 SE7       30.04S
HOLDREGE       CLEAR     69  65  86 SE8       30.04R
HEBRON         CLEAR     69  65  89 CALM      30.00F

...NEBRASKA PANHANDLE...

CITY           SKY/WX    TMP DP  RH WIND       PRES   REMARKS
CHADRON        CLEAR     76  51  41 S7        29.93F
ALLIANCE       CLEAR     65  48  54 S9        30.01S
SCOTTSBLUFF    CLEAR     80  49  33 S9        30.00S
SIDNEY         CLEAR     72  51  47 S12       30.09S

...WESTERN AND NORTH CENTRAL NEBRASKA...

CITY           SKY/WX    TMP DP  RH WIND       PRES   REMARKS
VALENTINE      CLOUDY    71  55  56 E9        30.02R
AINSWORTH      CLEAR     68  59  73 SE9       30.03S
ONEILL         CLEAR     67  60  79 SE3       30.04S
BROKEN BOW     CLEAR     67  62  84 SE5       30.04S
IMPERIAL       PTCLDY    69  55  60 SE6       30.05S
NORTH PLATTE   CLEAR     67  64  90 SE5       30.03S
MCCOOK         PTCLDY    73  64  73 SE9       30.03S

...EASTERN NEBRASKA...

CITY           SKY/WX    TMP DP  RH WIND       PRES   REMARKS
NORFOLK        CLEAR     65  58  78 SE6       30.02S
SO SIOUX CITY  CLEAR     63  60  90 CALM      30.02R
TEKAMAH        CLEAR     62  58  86 CALM      30.02R
COLUMBUS       CLEAR     62  59  90 E3        30.03R
ALBION         CLEAR     64  59  85 E6        30.04R
OMAHA EPPLEY   CLEAR     71  61  70 CALM      30.01S
OFFUTT AFB     CLEAR     68  61  77 NE7       30.01R
MILLARD        CLEAR     74  62  66 E5        30.02R
LINCOLN        CLEAR     66  62  87 N6        30.01F
NEBRASKA CITY  CLEAR     68  66  94 N5        30.01S
BEATRICE       CLEAR     69  63  80 E3        30.00F
FALLS CITY     CLEAR     71  63  75 E3        29.98S

...NORTHERN KANSAS...

CITY           SKY/WX    TMP DP  RH WIND       PRES   REMARKS
GOODLAND       CLEAR     69  56  62 S10       30.09F
HILL CITY      CLEAR     71  64  78 E6        30.02S
NORTON         CLEAR     70  63  78 E6        30.02S
PHILLIPSBURG   CLEAR     72  70  94 NE6       30.01S
SMITH CENTER   PTCLDY    72  64  78 E10       30.01S
HAYS             N/A     72  62  71 NE3       30.01S
RUSSELL        CLEAR     75  62  64 NE6       29.99S
CONCORDIA      CLEAR     73  67  81 E5        29.99S
SALINA         CLEAR     79  68  69 N3        29.96S
TOPEKA         PTCLDY    79  73  82 NE5       29.96R



USA.gov is the U.S. government's official web portal to all federal, state and local government web resources and services.